Overview Statistics Trail Chart Weather Telemetry Raw packets
 

This is the latest recevied weather packets stored in our database for station/object S57PNX-8. If no packets are shown the sender has not sent any weather packets the latest 10 day(s).

<< 27 28 29 30 31 32 33 >>
Time Temp. Humidity Pressure Rain* Wind** Luminosity Snow
1788097766 26.11° C 53% 1022.7 hPa - - - -
1788097725 26.11° C 53% 1022.7 hPa - - - -
1788096820 25.56° C 54% 1022.8 hPa - - - -
1788095920 25° C 55% 1022.9 hPa - - - -
1788095022 24.44° C 56% 1023 hPa - - - -
1788094123 24.44° C 57% 1022.9 hPa - - - -
1788093224 23.89° C 57% 1023 hPa - - - -
1788092325 23.89° C 58% 1022.9 hPa - - - -
1788091426 23.33° C 59% 1023.1 hPa - - - -
1788090523 23.33° C 59% 1023.1 hPa - - - -
1788089624 23.33° C 59% 1023.2 hPa - - - -
1788088724 22.78° C 60% 1023.3 hPa - - - -
1788087825 22.78° C 61% 1023.3 hPa - - - -
1788086923 22.22° C 61% 1023.4 hPa - - - -
1788086024 22.22° C 62% 1023.5 hPa - - - -
1788085125 22.22° C 62% 1023.7 hPa - - - -
1788084226 21.67° C 62% 1023.7 hPa - - - -
1788083327 21.67° C 62% 1023.9 hPa - - - -
1788082428 21.67° C 63% 1023.8 hPa - - - -
1788081698 21.67° C 64% 1023.9 hPa - - - -
1788080799 21.11° C 67% 1023.9 hPa - - - -
1788079900 20.56° C 71% 1023.7 hPa - - - -
1788079001 19.44° C 75% 1023.7 hPa - - - -
1788078101 19.44° C 77% 1023.6 hPa - - - -
1788077202 18.89° C 77% 1023.7 hPa - - - -

* Rain since midnight (hover to see other rain measurements)
** Current wind speed in m/s (hover to see current wind gust speed)